Location: Frankfurt+am+Main
(50.1100°N, 8.4815°E)
Time: 06:59:07
(UTC+01:00)

ISS - Pass Details

Date: 10 January 2018
Orbit: 402 x 407 km, 51.6° (Epoch: 18 January)

Event Time Altitude Azimuth Distance (km) Brightness Sun altitude
Exits shadow 06:31:22 50° 269° (W) 529 -3.7 -17.0°
Maximum altitude 06:32:05 74° 200° (SSW) 428 -3.8 -16.9°
Drops below altitude 10° 06:35:22 10° 116° (ESE) 1,466 0.3 -16.4°
Sets 06:37:27 0° 114° (ESE) 2,325 1.8 -16.1°
